This demonstration page uses our WeatherBlox Daily Observations layout. Learn more.

Hourly Observations for January 12, 2018

Temp ( °F °C ) Dew Point ( °F °C ) Humidity (%) Winds ( mph kmh ) Pressure ( in mb ) Visibility ( mi km ) Precip ( " mm )
12:15 am 00:15 Clear 4 -15.5 -1 -18.2 80 80 WNW 9 15 30.59 1036 10 16.0934 0 0
12:35 am 00:35 Clear 3 -16 -1 -18.5 81 81 NW 6 9 30.56 1035 10 16.0934 0 0
12:55 am 00:55 Clear 4 -15.7 -1 -18.2 81 81 NNW 7 11 30.56 1035 10 16.0934 0 0
1:15 am 01:15 Clear 4 -15.8 -1 -18.4 81 81 NW 7 11 30.56 1035 10 16.0934 0 0
1:35 am 01:35 Clear 3 -16.3 -2 -18.7 82 82 NW 3 6 30.56 1035 10 16.0934 0 0
1:55 am 01:55 Clear 3 -16 -1 -18.4 82 82 NNW 5 7 30.56 1035 10 16.0934 0 0
2:15 am 02:15 Clear 3 -16 -1 -18.5 81 81 N 5 7 30.53 1034 10 16.0934 0 0
2:35 am 02:35 Clear 2 -16.6 -2 -18.9 83 83 N 5 7 30.56 1035 10 16.0934 0 0
2:55 am 02:55 Partly Cloudy 2 -16.8 -2 -19.1 83 83 N 5 7 30.56 1035 10 16.0934 0 0
3:15 am 03:15 Partly Cloudy 3 -16.3 -1 -18.6 83 83 N 6 9 30.53 1034 10 16.0934 0 0
3:35 am 03:35 Mostly Cloudy 3 -16.1 -1 -18.6 81 81 N 6 9 30.53 1034 10 16.0934 0 0
3:55 am 03:55 Cloudy 4 -15.5 0 -18 81 81 N 8 13 30.5 1033 10 16.0934 0 0
4:15 am 04:15 Cloudy 4 -15.5 -1 -18.2 80 80 N 9 15 30.5 1033 10 16.0934 0 0
4:35 am 04:35 Cloudy 4 -15.3 -1 -18.3 78 78 N 12 19 30.5 1033 10 16.0934 0 0
4:55 am 04:55 Cloudy 4 -15.5 -1 -18.5 78 78 N 9 15 30.5 1033 10 16.0934 0 0
5:15 am 05:15 Cloudy 4 -15.5 -1 -18.5 78 78 NNE 9 15 30.48 1032 10 16.0934 0 0
5:35 am 05:35 Cloudy 4 -15.5 -1 -18.5 78 78 NE 12 19 30.48 1032 10 16.0934 0 0
5:55 am 05:55 Cloudy 4 -15.5 -2 -18.7 77 77 N 7 11 30.48 1032 10 16.0934 0 0
6:15 am 06:15 Mostly Cloudy 3 -16 -2 -19 78 78 N 6 9 30.5 1033 10 16.0934 0 0
6:35 am 06:35 Partly Cloudy 2 -16.5 -3 -19.2 80 80 Calm 30.5 1033 10 16.0934 0 0
6:55 am 06:55 Cloudy 4 -15.6 -1 -18.5 79 79 ENE 8 13 30.48 1032 10 16.0934 0 0
7:15 am 07:15 Cloudy 4 -15.5 -1 -18.5 78 78 NNE 5 7 30.5 1033 10 16.0934 0 0
7:35 am 07:35 Cloudy 4 -15.5 -2 -19 75 75 NE 5 7 30.5 1033 10 16.0934 0 0
7:55 am 07:55 Cloudy 4 -15.3 -2 -19 74 74 ENE 6 9 30.5 1033 10 16.0934 0 0
8:15 am 08:15 Cloudy 4 -15.4 -2 -19.1 74 74 NE 6 9 30.5 1033 10 16.0934 0 0
8:35 am 08:35 Mostly Cloudy 5 -15.1 -2 -19 72 72 NE 6 9 30.53 1034 10 16.0934 0 0
8:55 am 08:55 Cloudy 5 -15 -3 -19.6 68 68 ENE 6 9 30.53 1034 10 16.0934 0 0
9:15 am 09:15 Cloudy 5 -15 -3 -19.6 68 68 ENE 8 13 30.53 1034 10 16.0934 0 0
9:35 am 09:35 Cloudy 5 -15 -3 -19.5 69 69 ENE 9 15 30.53 1034 10 16.0934 0 0
9:55 am 09:55 Cloudy 5 -15 -4 -19.8 67 67 E 5 7 30.56 1035 10 16.0934 0 0
10:15 am 10:15 Cloudy 6 -14.7 -4 -20.2 63 63 ENE 3 6 30.56 1035 10 16.0934 0 0
10:35 am 10:35 Cloudy 6 -14.5 -5 -20.3 62 62 E 5 7 30.56 1035 10 16.0934 0 0
10:55 am 10:55 Cloudy 7 -14 -3 -19.5 63 63 E 6 9 30.56 1035 10 16.0934 0 0
11:15 am 11:15 Cloudy 7 -13.8 -3 -19.4 63 63 ESE 9 15 30.56 1035 10 16.0934 0 0
11:35 am 11:35 Cloudy 8 -13.6 -2 -19.1 64 64 ESE 8 13 30.56 1035 10 16.0934 0 0
11:55 am 11:55 Cloudy 8 -13.5 -2 -18.8 65 65 E 9 15 30.56 1035 10 16.0934 0 0
12:15 pm 12:15 Cloudy with Light Snow 8 -13.3 -1 -18.3 66 66 E 9 15 30.53 1034 10 16.0934 0 0
12:35 pm 12:35 Mostly Cloudy 9 -13 0 -17.7 68 68 E 8 13 30.53 1034 10 16.0934 0 0
12:55 pm 12:55 Mostly Cloudy 9 -13 1 -17.1 72 72 E 7 11 30.53 1034 10 16.0934 0 0
1:15 pm 13:15 Cloudy 9 -13 2 -16.7 74 74 ENE 8 13 30.53 1034 10 16.0934 0 0
1:35 pm 13:35 Cloudy 9 -12.9 3 -16.1 77 77 NE 6 9 30.53 1034 10 16.0934 0 0
1:55 pm 13:55 Cloudy 10 -12.5 4 -15.6 78 78 E 8 13 30.5 1033 10 16.0934 0 0
2:15 pm 14:15 Cloudy 10 -12.3 4 -15.5 77 77 ENE 10 17 30.56 1035 10 16.0934 0 0
2:35 pm 14:35 Cloudy 10 -12.3 4 -15.5 77 77 ENE 12 19 30.56 1035 10 16.0934 0 0
2:55 pm 14:55 Cloudy 10 -12.5 3 -15.9 76 76 NE 10 17 30.56 1035 10 16.0934 0 0
3:15 pm 15:15 Cloudy 10 -12.5 3 -16.1 75 75 NE 12 19 30.59 1036 10 16.0934 0 0
3:35 pm 15:35 Cloudy 10 -12.5 3 -16 75 75 NNE 10 17 30.62 1037 10 16.0934 0 0
3:55 pm 15:55 Cloudy 9 -12.6 3 -16.2 75 75 NE 9 15 30.62 1037 10 16.0934 0 0
4:15 pm 16:15 Cloudy 10 -12.3 2 -16.7 70 70 NE 10 17 30.62 1037 10 16.0934 0 0
4:35 pm 16:35 Cloudy 10 -12.5 2 -16.7 71 71 NNE 12 19 30.65 1038 10 16.0934 0 0
4:55 pm 16:55 Cloudy 10 -12.5 1 -17.4 67 67 NNE 13 20 30.68 1039 10 16.0934 0 0
5:15 pm 17:15 Cloudy with Light Snow 10 -12.5 1 -17.5 67 67 NNE 8 13 30.68 1039 10 16.0934 0 0
5:35 pm 17:35 Cloudy with Light Snow 9 -12.6 1 -17 70 70 NE 9 15 30.68 1039 10 16.0934 0 0
5:55 pm 17:55 Cloudy 10 -12.5 2 -16.6 72 72 NNE 10 17 30.68 1039 10 16.0934 0 0
6:15 pm 18:15 Cloudy with Light Snow 9 -12.6 3 -16.2 75 75 NE 10 17 30.71 1040 7 11.26538 0 0
6:35 pm 18:35 Cloudy with Light Snow 9 -12.6 4 -15.6 79 79 NE 10 17 30.71 1040 7 11.26538 0 0
6:55 pm 18:55 Cloudy 9 -12.6 4 -15.5 79 79 NNE 12 19 30.71 1040 10 16.0934 0 0
7:15 pm 19:15 Cloudy 9 -12.6 4 -15.3 80 80 NNE 9 15 30.71 1040 10 16.0934 0 0
7:35 pm 19:35 Cloudy 9 -12.6 4 -15.6 79 79 NNE 10 17 30.71 1040 10 16.0934 0 0
7:55 pm 19:55 Cloudy 9 -12.6 3 -16.1 75 75 NNE 12 19 30.74 1041 10 16.0934 0 0
8:15 pm 20:15 Cloudy 9 -12.7 2 -16.4 74 74 NNE 10 17 30.74 1041 10 16.0934 0 0
8:35 pm 20:35 Cloudy 9 -12.8 3 -16.2 76 76 NNE 10 17 30.74 1041 10 16.0934 0 0
8:55 pm 20:55 Cloudy 8 -13.1 3 -16.2 78 78 NNE 8 13 30.74 1041 10 16.0934 0 0
9:15 pm 21:15 Cloudy 8 -13.2 3 -15.9 80 80 NNE 7 11 30.74 1041 10 16.0934 0 0
9:35 pm 21:35 Cloudy 8 -13.3 3 -16.1 80 80 NNE 5 7 30.74 1041 10 16.0934 0 0
9:55 pm 21:55 Cloudy 8 -13.2 3 -16.1 79 79 N 5 7 30.74 1041 10 16.0934 0 0
10:15 pm 22:15 Cloudy 8 -13.2 3 -16 80 80 N 8 13 30.8 1043 10 16.0934 0 0
10:35 pm 22:35 Cloudy 8 -13.2 3 -16 80 80 N 7 11 30.8 1043 10 16.0934 0 0
10:55 pm 22:55 Cloudy 8 -13.4 3 -16 81 81 N 7 11 30.8 1043 10 16.0934 0 0
11:15 pm 23:15 Cloudy 8 -13.5 3 -16 82 82 N 8 13 30.8 1043 10 16.0934 0 0
11:35 pm 23:35 Cloudy 8 -13.5 4 -15.8 83 83 N 7 11 30.8 1043 10 16.0934 0 0
11:55 pm 23:55 Cloudy 8 -13.5 3 -16 82 82 N 6 9 30.8 1043 10 16.0934 0 0

Powered by AerisWeather